Regional Weather Roundup
Issued by NWS

Home | Current Version | Previous Version | Graphics & Text | Print | Product List | Glossary On
Versions: 1 2 3 4 5 6 7 8 9 10 11 12 13 14 15 16 17 18 19 20 21 22 23 24 25 26 27 28 29 30 31 32 33 34 35 36 37 38 39 40 41 42 43 44 45 46 47 48 49 50
000
ASUS43 KBIS 172302
RWRND

NORTH DAKOTA REGIONAL WEATHER ROUNDUP
NATIONAL WEATHER SERVICE BISMARCK ND
500 PM CST SUN DEC 17 2017

NOTE: "FAIR" INDICATES FEW OR NO CLOUDS BELOW 12,000 FEET WITH NO
SIGNIFICANT WEATHER AND/OR OBSTRUCTIONS TO VISIBILITY.


NDZ001>003-009>011-017-180000-
NORTHWEST NORTH DAKOTA

CITY           SKY/WX    TMP DP  RH WIND       PRES   REMARKS
WILLISTON      CLOUDY    36  19  50 SW9       29.69F
MINOT          CLEAR     37  24  59 S12       29.69F
MINOT AFB      CLEAR     33  23  66 S8        29.67F
$$

NDZ018>021-031>035-040>046-180000-
SOUTHWEST NORTH DAKOTA

CITY           SKY/WX    TMP DP  RH WIND       PRES   REMARKS
BISMARCK       PTCLDY    37  21  52 S7        29.80F
DICKINSON      PTCLDY    37  23  56 SW16      29.72F
GARRISON         N/A     36  27  69 SW12      29.72F
HETTINGER ARPT CLEAR     33  21  61 SW8       29.78F
$$

NDZ004>008-012>016-024-026-027-054-180000-
NORTHEAST NORTH DAKOTA

CITY           SKY/WX    TMP DP  RH WIND       PRES   REMARKS
GRAND FORKS    CLEAR     20  17  88 S8        29.85F WCI  10
GRND FRKS AFB  CLEAR     21  15  78 S8        29.84F WCI  11
DEVILS LAKE    CLEAR     31  23  72 S10       29.78F
$$

NDZ022-023-025-028>030-036>039-047>053-180000-
SOUTHEAST NORTH DAKOTA

CITY           SKY/WX    TMP DP  RH WIND       PRES   REMARKS
FARGO          CLEAR     30  27  88 SE7       29.88F
JAMESTOWN      CLEAR     28  23  81 S7        29.82F
$$





USA.gov is the U.S. government's official web portal to all federal, state and local government web resources and services.